Boonville, MO

3:19 AM CST on December 15, 2017 (GMT -0600)
Viertel Memorial

Weather History for KVER - May, 2014

Change the Weather History Date:

Saturday, May 17, 2014

  Actual Average Record
Temperature  
Mean Temperature 49 °F -  
Max Temperature 89 °F 76 °F 90 °F (2013)
Min Temperature 35 °F 54 °F 35 °F (2014)
Degree Days  
Heating Degree Days 16    
Moisture  
Dew Point 36 °F    
Average Humidity 61    
Maximum Humidity 99    
Minimum Humidity 31    
Precipitation  
Precipitation 0.00 in - - ()
Sea Level Pressure  
Sea Level Pressure 30.16 in    
Wind  
Wind Speed 1 mph (SW)    
Max Wind Speed 6 mph    
Max Gust Speed -    
Visibility 10 miles    
Events      
Averages and records for this station are not official NWS values.
T = Trace of Precipitation, MM = Missing Value Source: NWS Daily Summary

Daily Weather History Graph

Daily Weather History Graph

Search for Another Location

Airport or City:

Trip Planner

Search our weather history database for the weather conditions in past years. The results will help you decide how hot, cold, wet, or windy it might be!

Date:

Astronomy

May. 17, 2014 Rise Set
Actual Time 5:56 AM CDT 8:18 PM CDT
Civil Twilight 5:26 AM CDT 8:48 PM CDT
Nautical Twilight 4:48 AM CDT 9:26 PM CDT
Astronomical Twilight 4:07 AM CDT 10:07 PM CDT
Moon 11:19 PM CDT (5/17) 8:39 AM CDT (5/17)
Length of Visible Light 15h 22m
Length of Day
14h 22m
Waning Gibbous, 89% of the Moon is Illuminated
May 17
Waning Gibbous
May 21
Last Quarter
May 28
New
Jun 5
First Quarter
Jun 12
Full

Hourly Weather History & Observations

Time (CDT) Temp. Windchill Dew Point Humidity Pressure Visibility Wind Dir Wind Speed Gust Speed Precip Events Conditions
12:15 AM 45.5 °F 44.2 °F 34.7 °F 66% 30.15 in 10.0 mi West 3.5 mph - N/A   Clear
12:35 AM 45.1 °F 43.7 °F 34.7 °F 67% 30.15 in 10.0 mi WSW 3.5 mph - N/A   Clear
12:55 AM 44.6 °F - 34.7 °F 68% 30.15 in 10.0 mi Calm Calm - N/A   Clear
1:15 AM 43.9 °F - 34.7 °F 70% 30.15 in 10.0 mi Calm Calm - N/A   Clear
1:35 AM 42.6 °F - 34.7 °F 74% 30.14 in 10.0 mi Calm Calm - N/A   Clear
1:55 AM 41.2 °F - 35.2 °F 79% 30.14 in 10.0 mi Calm Calm - N/A   Clear
2:15 AM 40.3 °F - 35.8 °F 84% 30.14 in 10.0 mi Calm Calm - N/A   Clear
2:35 AM 39.2 °F - 37.0 °F 92% 30.14 in 10.0 mi Calm Calm - N/A   Clear
2:55 AM 38.8 °F - 37.0 °F 93% 30.14 in 10.0 mi Calm Calm - N/A   Clear
3:15 AM 38.3 °F - 37.0 °F 95% 30.14 in 10.0 mi Calm Calm - N/A   Clear
3:35 AM 38.1 °F - 37.0 °F 96% 30.15 in 10.0 mi Calm Calm - N/A   Clear
3:55 AM 38.1 °F - 36.5 °F 94% 30.15 in 10.0 mi Calm Calm - N/A   Clear
4:15 AM 37.2 °F - 36.3 °F 97% 30.15 in 10.0 mi Calm Calm - N/A   Clear
4:35 AM 36.5 °F - 35.8 °F 97% 30.15 in 10.0 mi Calm Calm - N/A   Clear
4:55 AM 36.3 °F - 36.0 °F 99% 30.15 in 10.0 mi Calm Calm - N/A   Clear
5:15 AM 36.5 °F - 36.1 °F 99% 30.15 in 7.0 mi Calm Calm - N/A   Clear
5:35 AM 35.8 °F - 35.4 °F 99% 30.15 in 7.0 mi Calm Calm - N/A   Clear
5:55 AM 35.6 °F - 35.4 °F 99% 30.15 in 7.0 mi Calm Calm - N/A   Clear
6:15 AM 35.1 °F - 34.9 °F 99% 30.16 in 5.0 mi Calm Calm - N/A   Clear
6:35 AM 35.6 °F - 35.2 °F 99% 30.16 in 7.0 mi Calm Calm - N/A   Clear
6:55 AM 36.3 °F - 36.1 °F 99% 30.17 in 10.0 mi Calm Calm - N/A   Clear
7:15 AM 38.1 °F - 37.8 °F 99% 30.17 in 10.0 mi Calm Calm - N/A   Clear
7:35 AM 40.5 °F - 39.0 °F 95% 30.17 in 10.0 mi Calm Calm - N/A   Clear
7:55 AM 42.8 °F - 40.3 °F 91% 30.18 in 10.0 mi Calm Calm - N/A   Clear
8:15 AM 45.0 °F - 41.0 °F 86% 30.18 in 10.0 mi Calm Calm - N/A   Clear
8:35 AM 46.9 °F - 41.5 °F 81% 30.18 in 10.0 mi Calm Calm - N/A   Clear
8:55 AM 48.9 °F - 40.8 °F 74% 30.18 in 10.0 mi Calm Calm - N/A   Clear
9:15 AM 51.3 °F - 41.2 °F 68% 30.18 in 10.0 mi Calm Calm - N/A   Clear
9:35 AM 53.4 °F - 40.5 °F 61% 30.18 in 10.0 mi WSW 3.5 mph - N/A   Scattered Clouds
9:55 AM 55.0 °F - 38.8 °F 54% 30.18 in 10.0 mi SW 4.6 mph - N/A   Clear
10:15 AM 56.5 °F - 37.2 °F 49% 30.18 in 10.0 mi NW 3.5 mph - N/A   Clear
10:35 AM 57.0 °F - 35.2 °F 44% 30.18 in 10.0 mi SW 5.8 mph - N/A   Scattered Clouds
10:55 AM 58.1 °F - 35.1 °F 42% 30.19 in 10.0 mi SW 5.8 mph - N/A   Scattered Clouds
11:15 AM 59.0 °F - 34.2 °F 39% 30.19 in 10.0 mi West 5.8 mph - N/A   Mostly Cloudy
11:35 AM 58.5 °F - 32.2 °F 37% 30.19 in 10.0 mi SSE 5.8 mph - N/A   Scattered Clouds
11:55 AM 60.4 °F - 34.3 °F 38% 30.19 in 10.0 mi South 4.6 mph - N/A   Mostly Cloudy
12:15 PM 59.5 °F - 32.5 °F 36% 30.19 in 10.0 mi West 5.8 mph - N/A   Mostly Cloudy
12:35 PM 59.9 °F - 31.3 °F 34% 30.19 in 10.0 mi Calm Calm - N/A   Mostly Cloudy
12:55 PM 59.9 °F - 31.6 °F 34% 30.18 in 10.0 mi Calm Calm - N/A   Mostly Cloudy
1:15 PM 60.3 °F - 32.9 °F 36% 30.18 in 10.0 mi SSW 3.5 mph - N/A   Mostly Cloudy
1:35 PM 61.5 °F - 31.5 °F 32% 30.18 in 10.0 mi West 3.5 mph - N/A   Scattered Clouds
1:55 PM 61.3 °F - 31.8 °F 33% 30.17 in 10.0 mi West 4.6 mph - N/A   Mostly Cloudy
2:15 PM 61.7 °F - 33.1 °F 34% 30.17 in 10.0 mi SSW 3.5 mph - N/A   Scattered Clouds
2:35 PM 62.2 °F - 34.5 °F 36% 30.16 in 10.0 mi SSE 3.5 mph - N/A   Scattered Clouds
2:55 PM 62.4 °F - 34.3 °F 35% 30.16 in 10.0 mi Calm Calm - N/A   Clear
3:15 PM 63.1 °F - 33.6 °F 33% 30.16 in 10.0 mi WNW 3.5 mph - N/A   Clear
3:35 PM 63.0 °F - 33.3 °F 33% 30.15 in 10.0 mi SW 5.8 mph - N/A   Clear
3:55 PM 63.5 °F - 33.4 °F 33% 30.14 in 10.0 mi WSW 3.5 mph - N/A   Scattered Clouds
4:15 PM 62.8 °F - 31.8 °F 31% 30.14 in 10.0 mi Calm Calm - N/A   Scattered Clouds
4:35 PM 62.2 °F - 32.4 °F 33% 30.14 in 10.0 mi Calm Calm - N/A   Scattered Clouds
4:55 PM 62.4 °F - 32.5 °F 33% 30.14 in 10.0 mi Calm Calm - N/A   Clear
5:15 PM 62.6 °F - 32.9 °F 33% 30.14 in 10.0 mi Calm Calm - N/A   Clear
5:35 PM 62.6 °F - 34.2 °F 35% 30.14 in 10.0 mi Calm Calm - N/A   Clear
5:55 PM 61.9 °F - 33.1 °F 34% 30.14 in 10.0 mi Calm Calm - N/A   Clear
6:15 PM 61.7 °F - 33.4 °F 35% 30.14 in 10.0 mi Calm Calm - N/A   Clear
6:35 PM 61.3 °F - 35.6 °F 38% 30.14 in 10.0 mi Calm Calm - N/A   Clear
6:55 PM 60.8 °F - 36.1 °F 40% 30.15 in 10.0 mi Calm Calm - N/A   Clear
7:15 PM 60.3 °F - 35.4 °F 39% 30.15 in 10.0 mi Calm Calm - N/A   Clear
7:35 PM 59.9 °F - 36.3 °F 41% 30.15 in 10.0 mi Calm Calm - N/A   Clear
7:55 PM 59.2 °F - 36.1 °F 42% 30.16 in 10.0 mi Calm Calm - N/A   Clear
8:15 PM 58.6 °F - 36.7 °F 44% 30.16 in 10.0 mi Calm Calm - N/A   Clear
8:35 PM 57.0 °F - 36.5 °F 46% 30.16 in 10.0 mi Calm Calm - N/A   Clear
8:55 PM 55.8 °F - 36.3 °F 48% 30.17 in 10.0 mi Calm Calm - N/A   Clear
9:15 PM 54.1 °F - 36.5 °F 51% 30.17 in 10.0 mi SE 3.5 mph - N/A   Clear
9:35 PM 52.3 °F - 38.5 °F 59% 30.17 in 10.0 mi SSE 3.5 mph - N/A   Clear
9:55 PM 50.5 °F - 39.4 °F 66% 30.18 in 10.0 mi Calm Calm - N/A   Clear
10:15 PM 50.0 °F - 39.4 °F 67% 30.18 in 10.0 mi Calm Calm - N/A   Clear
10:35 PM 50.7 °F - 37.8 °F 61% 30.19 in 10.0 mi Calm Calm - N/A   Clear
11:15 PM 50.0 °F - 37.0 °F 61% 30.19 in 10.0 mi Calm Calm - N/A   Clear
11:35 PM 49.5 °F - 37.0 °F 62% 30.19 in 10.0 mi Calm Calm - N/A   Clear
11:55 PM 48.4 °F - 37.2 °F 65% 30.19 in 10.0 mi Calm Calm - N/A   Clear